sat.trackr.live / text

‹ back to catalog

STARLINK-32778

NORAD 62603 · 2025-008S

PAYLOAD ACTIVE UNKNOWN

§ Identity

Operator
Country
US
Launch date
2025-01-13
Launch site
AFETR
Launch vehicle
Mass (kg)
RCS (m²)

Purposes: comms

External: N2YO · Heavens-Above · Gunter

§ Orbital elements

Epoch: 2026-09-21T16:25:25.331808Z

Period
94.27 min
Inclination
43.0007°
Eccentricity
0.0001108
Mean motion
15.27577791 rev/d
Perigee alt
482.3 km
Apogee alt
483.8 km
Semi-major
6,861.2 km
B*
6.0796e-5
RAAN
251.5305°
Arg perigee
270.8857°
Mean anomaly
89.1868°
Rev number
9,553

§ Raw data

STARLINK-327781 62603U 25008S   26264.68432097  .00001411  00000+0  60796-4 0  99992 62603  43.0007 251.5305 0001108 270.8857  89.1868 15.27577791 95534

JSON: /api/v1/satellites/62603 · /tle

For live sub-satellite position, see the globe view (requires WebGL).

§ Visibility from observer

Set your observer location to see the next 7 days of passes ≥ 10°. The values pass through the URL so the page stays shareable.

No JS? Fill the form by hand. The geolocation button needs JavaScript.